Location: Asheville, NC
(35.6000°N, 82.5500°W)
Time: 15:59:29
(UTC-05:00)

HO-68 - Pass Details

Date: 04 January 2018
Orbit: 1192 x 1205 km, 100.1° (Epoch: 15 January)

Event Time Altitude Azimuth Distance (km) Brightness Sun altitude
Rises 06:23:18 0° 29° (NNE) 4,095 ? -15.3°
Reaches altitude 10° 06:26:34 10° 43° (NE) 3,126 ? -14.6°
Maximum altitude 06:32:06 24° 95° (E) 2,249 ? -13.6°
Drops below altitude 10° 06:37:36 10° 146° (SE) 3,115 ? -12.5°
Sets 06:40:49 0° 160° (SSE) 4,076 ? -11.9°
